This demonstration page uses our WeatherBlox Daily Observations layout. Learn more.

Left ArrowRight Arrow

44.8408, -93.29828

Hourly Observations for December 17, 2017

Temp ( °F °C ) Dew Point ( °F °C ) Humidity (%) Winds ( mph kmh ) Pressure ( in mb ) Visibility ( mi km ) Precip ( " mm )
12:53 am 00:53 Partly Cloudy 21 -6.1 18 -7.8 88 88 NE 3 6 30.13 1020 10 16 0.00 0.00
1:53 am 01:53 Partly Cloudy 20 -6.7 17 -8.3 89 89 Calm 30.14 1021 10 16 0.00 0.00
2:53 am 02:53 Mostly Clear 19 -7.2 17 -8.3 92 92 NNE 3 6 30.15 1021 10 16 0.00 0.00
3:53 am 03:53 Cloudy 20 -6.7 18 -7.8 92 92 N 3 6 30.15 1021 10 16 0.00 0.00
4:23 am 04:23 Cloudy 21 -6.1 18 -7.8 88 88 NE 5 7 30.15 1021 9 14 0.00 0.00
4:32 am 04:32 Cloudy 22 -5.6 19 -7.2 89 89 ENE 6 9 30.15 1021 9 14 0.00 0.00
4:53 am 04:53 Cloudy 22 -5.6 19 -7.2 89 89 ENE 5 7 30.14 1021 8 13 0.00 0.00
5:53 am 05:53 Cloudy with Mist and Fog 21 -6.1 20 -6.7 96 96 E 5 7 30.14 1021 6 10 0.00 0.00
6:53 am 06:53 Cloudy with Mist and Fog 22 -5.6 21 -6.1 96 96 Calm 30.14 1021 6 10 0.00 0.00
7:53 am 07:53 Cloudy with Mist and Fog 23 -5 22 -5.6 96 96 NE 5 7 30.13 1020 3 5 0.00 0.00
7:57 am 07:57 Cloudy with Mist and Fog 23 -5 22 -5.6 96 96 NE 3 6 30.15 1021 3 4 0.00 0.00
8:53 am 08:53 Cloudy with Mist and Fog 24 -4.4 23 -5 96 96 Calm 30.14 1021 3 5 0.00 0.00
9:01 am 09:01 Cloudy with Mist and Fog 24 -4.4 23 -5 96 96 Calm 30.15 1021 3 5 0.00 0.00
9:32 am 09:32 Cloudy with Mist and Fog 24 -4.4 23 -5 96 96 ENE 7 11 30.15 1021 3 5 0.00 0.00
9:53 am 09:53 Cloudy with Mist and Fog 24 -4.4 24 -4.4 100 100 E 5 7 30.13 1020 3 5 0.00 0.00
10:31 am 10:31 Cloudy with Mist and Fog 25 -3.9 24 -4.4 96 96 Calm 30.15 1021 3 5 0.00 0.00
10:53 am 10:53 Cloudy with Mist and Fog 25 -3.9 24 -4.4 96 96 Calm 30.12 1020 4 6 0.00 0.00
11:02 am 11:02 Cloudy with Mist and Fog 26 -3.3 24 -4.4 92 92 Calm 30.12 1020 2 3 0.00 0.00
11:16 am 11:16 Cloudy with Mist and Fog 26 -3.3 24 -4.4 92 92 Calm 30.12 1020 3 4 0.00 0.00
11:27 am 11:27 Cloudy with Mist and Fog 26 -3.3 24 -4.4 92 92 Calm 30.12 1020 3 5 0.00 0.00
11:53 am 11:53 Cloudy with Mist and Fog 27 -2.8 24 -4.4 89 89 Calm 30.09 1019 3 5 0.00 0.00
12:24 pm 12:24 Cloudy with Mist and Fog 27 -2.8 24 -4.4 89 89 Calm 30.09 1019 3 5 0.00 0.00
12:53 pm 12:53 Cloudy with Mist and Fog 27 -2.8 25 -3.9 92 92 Calm 30.08 1019 4 6 0.00 0.00
1:48 pm 13:48 Cloudy with Mist and Fog 28 -2 25 -4 86 86 Calm 30.06 1018 4 6 0.00 0.00
1:53 pm 13:53 Cloudy with Mist and Fog 28 -2.2 25 -3.9 88 88 VRB 3 6 30.05 1018 4 6 0.00 0.00
2:53 pm 14:53 Cloudy with Mist and Fog 27 -2.8 24 -4.4 89 89 Calm 30.04 1017 4 6 0.00 0.00
3:53 pm 15:53 Cloudy with Mist and Fog 28 -2.2 24 -4.4 85 85 Calm 30.01 1016 4 6 0.00 0.00
4:53 pm 16:53 Cloudy with Mist and Fog 28 -2.2 24 -4.4 85 85 Calm 30.01 1016 5 8 0.00 0.00
5:53 pm 17:53 Cloudy with Mist and Fog 28 -2.2 24 -4.4 85 85 SSE 5 7 30.02 1017 5 8 0.00 0.00
6:53 pm 18:53 Cloudy with Mist and Fog 27 -2.8 24 -4.4 89 89 SSE 5 7 30.02 1017 5 8 0.00 0.00
7:53 pm 19:53 Cloudy with Mist and Fog 27 -2.8 25 -3.9 92 92 VRB 3 6 30.03 1017 5 8 0.00 0.00
8:53 pm 20:53 Cloudy with Mist and Fog 27 -2.8 25 -3.9 92 92 SSE 7 11 30.01 1016 5 8 0.00 0.00
9:36 pm 21:36 Cloudy with Mist and Fog 27 -2.8 25 -3.9 92 92 SSE 5 7 30.00 1016 5 8 0.00 0.00
9:53 pm 21:53 Cloudy with Mist and Fog 27 -2.8 25 -3.9 92 92 S 7 11 29.99 1016 5 8 0.00 0.00
10:53 pm 22:53 Cloudy with Mist and Fog 27 -2.8 25 -3.9 92 92 SSW 5 7 29.99 1016 6 10 0.00 0.00
11:53 pm 23:53 Cloudy with Mist and Fog 26 -3.3 26 -3.3 100 100 S 6 9 29.96 1015 5 8 0.00 0.00

Powered by AerisWeather